Вернуться в каталог

THORAD AGENA D DEB

АктивенLEO
NORAD 20360·DEBRIS·🇺🇸 United States

Запущен Apr 8, 1970 с Vandenberg Space Force Base

Loading…

Ближайшие Пролёты (ближайшие 24 часа)

TLE

СвежийSource: Space-Track

Эпоха: Sep 13, 2026, 10:02 UTC

1 20360U 70025QF  26256.41805985  .00006119  00000-0  29470-2 0  9997
2 20360 100.4150 229.4858 0029364 356.5852 156.8076 14.18951474844991

Отслеживайте THORAD AGENA D DEB в реальном времени с AllMySat

Download on the App Store